VOE2NL LIRF-LIPX

Flight info

Callsign VOE2NL
Flight time N/A
Altitude 32000
Route SOSIV5AXSOVAN1E/25 SOVAN DCT AMTEL DCT NUKNI DCT BIKTU DCT BOA/N0346F180 Y72 XUBKA
Aircraft A320/M-SDE3FGHIRWY/LB1

Departure

Time 2026-02-20 10:56
Airport Rome–Fiumicino Leonardo da Vinci International Airport (LIRF)

Arrival

Time N/A
Airport Verona Villafranca Valerio Catullo Airport (LIPX)
Time Latitude Longitude Altitude Speed Heading
2026-02-20 10:23 41.79691 12.25621 15 ft 0 kts 295°
2026-02-20 10:47 41.79685 12.25639 15 ft 2 kts 300°
2026-02-20 10:48 41.79677 12.25658 18 ft 2 kts 305°
2026-02-20 10:48 41.79666 12.25675 15 ft 2 kts 354°
2026-02-20 10:48 41.79653 12.25673 15 ft 1 kts 26°
2026-02-20 10:48 41.79652 12.25672 15 ft 0 kts 26°
2026-02-20 10:51 41.79657 12.25675 16 ft 5 kts 26°
2026-02-20 10:51 41.79696 12.25700 15 ft 6 kts 25°
2026-02-20 10:52 41.79740 12.25727 15 ft 9 kts 25°
2026-02-20 10:52 41.79815 12.25775 15 ft 15 kts 25°
2026-02-20 10:52 41.79918 12.25851 16 ft 19 kts 30°
2026-02-20 10:52 41.80052 12.25931 15 ft 23 kts 26°
2026-02-20 10:53 41.80200 12.26024 15 ft 24 kts 23°
2026-02-20 10:53 41.80352 12.26118 15 ft 17 kts 25°
2026-02-20 10:53 41.80466 12.26181 17 ft 18 kts 21°
2026-02-20 10:53 41.80546 12.26305 15 ft 19 kts 68°
2026-02-20 10:54 41.80595 12.26480 16 ft 21 kts 69°
2026-02-20 10:54 41.80649 12.26674 15 ft 23 kts 69°
2026-02-20 10:54 41.80700 12.26855 16 ft 1 kts 69°
2026-02-20 10:55 41.80705 12.26873 15 ft 7 kts 69°
2026-02-20 10:55 41.80740 12.26996 15 ft 16 kts 69°
2026-02-20 10:55 41.80851 12.27111 15 ft 24 kts
2026-02-20 10:55 41.80959 12.26973 14 ft 28 kts 267°
2026-02-20 10:56 41.80897 12.26706 14 ft 34 kts 250°
2026-02-20 10:56 41.80728 12.26088 21 ft 112 kts 250°
2026-02-20 10:56 41.80404 12.24852 222 ft 156 kts 252°
2026-02-20 10:56 41.80003 12.23382 822 ft 175 kts 252°
2026-02-20 10:57 41.79591 12.21811 1673 ft 184 kts 252°
2026-02-20 10:57 41.79179 12.20136 2398 ft 197 kts 262°
2026-02-20 10:57 41.79430 12.18358 2793 ft 200 kts 308°
2026-02-20 10:57 41.80330 12.16963 3570 ft 197 kts 314°
2026-02-20 10:58 41.81204 12.15579 4346 ft 197 kts 311°
2026-02-20 10:58 41.82068 12.14148 5095 ft 199 kts 311°
2026-02-20 10:58 41.82936 12.12689 5774 ft 202 kts 311°
2026-02-20 10:58 41.83843 12.11230 6456 ft 204 kts 320°
2026-02-20 10:59 41.85016 12.10148 7002 ft 212 kts 338°
2026-02-20 10:59 41.86497 12.09549 7308 ft 234 kts 346°
2026-02-20 10:59 41.88149 12.08974 7717 ft 254 kts 345°
2026-02-20 10:59 41.89872 12.08339 8463 ft 259 kts 344°
2026-02-20 11:00 41.91618 12.07681 9299 ft 262 kts 344°
2026-02-20 11:00 41.93382 12.07017 10119 ft 265 kts 344°
2026-02-20 11:00 41.95238 12.06323 10403 ft 288 kts 346°
2026-02-20 11:00 41.97307 12.05962 10588 ft 312 kts 354°
2026-02-20 11:01 41.99539 12.05740 10835 ft 332 kts 355°
2026-02-20 11:01 42.01878 12.05513 11423 ft 338 kts 355°
2026-02-20 11:01 42.04242 12.05285 12116 ft 342 kts 355°
2026-02-20 11:01 42.06627 12.05057 12801 ft 346 kts 355°
2026-02-20 11:02 42.09038 12.04826 13485 ft 349 kts 354°
2026-02-20 11:02 42.11475 12.04587 14106 ft 353 kts 354°
2026-02-20 11:02 42.13936 12.04343 14695 ft 357 kts 354°